Vorticity
nan nan nan nan nan nan nan nan nan nan nan nan nan nan nan nan nan nan nan nan nan nan nan nan nan nan nan nan nan nan nan nan nan nan nan nan nan nan nan nan nan nan nan nan nan nan nan nan nan nan nan nan nan nan nan nan nan nan nan nan nan nan nan nan nan nan nan nan nan
nan 7 5 5 4 5 6 7 9 11 12 12 12 12 11 11 11 10 10 8 8 10 11 12 12 11 8 7 9 10 10 9 8 7 7 7 8 9 10 11 11 9 8 6 5 3 4 7 10 11 9 6 4 6 7 9 10 10 9 9 10 11 11 11 11 12 12 11 nan
nan 11 9 6 4 3 3 5 7 10 12 12 10 10 9 9 8 8 8 8 8 8 9 9 9 9 9 9 9 10 9 8 7 5 6 7 8 10 11 11 10 10 9 9 11 11 10 13 18 18 13 6 6 6 7 9 11 10 9 8 9 10 10 9 10 10 10 10 nan
nan 13 11 7 2 0 1 3 6 9 12 11 9 8 7 7 7 8 8 8 8 9 9 7 5 5 7 6 7 10 11 11 10 7 6 7 8 9 10 10 11 12 12 13 16 21 20 14 11 13 11 9 8 9 8 9 10 10 9 8 9 9 9 8 8 9 10 10 nan
nan 10 6 3 0 1 3 5 6 7 8 7 6 6 5 7 8 8 9 9 10 11 11 9 7 5 5 7 9 10 10 10 10 8 7 7 6 7 8 10 11 12 13 14 16 20 20 9 3 7 10 10 10 10 9 9 9 9 8 8 8 8 7 7 7 7 8 8 nan
nan 6 1 -1 2 4 6 7 5 3 3 5 5 5 5 7 8 9 9 10 11 13 15 17 16 13 12 14 12 9 6 8 10 10 8 6 5 6 7 8 10 11 12 13 14 13 12 5 3 7 9 10 11 11 9 8 8 7 6 6 7 7 6 6 7 7 7 7 nan
nan 4 1 1 4 4 5 5 5 4 4 7 9 7 6 7 9 10 10 11 11 13 14 17 19 17 15 13 11 8 8 9 9 9 8 7 7 7 7 8 9 10 10 10 10 9 8 4 5 9 9 9 10 12 10 8 7 7 6 5 7 8 9 9 9 8 8 8 nan
nan 7 6 7 5 5 6 6 5 4 5 8 9 7 6 6 10 12 12 11 10 10 11 12 14 14 12 10 9 9 10 9 8 9 9 10 10 8 6 8 8 9 8 8 8 7 5 4 7 9 9 7 9 12 11 9 8 8 8 8 8 9 10 11 10 11 11 11 nan
nan 10 10 8 5 6 8 10 9 8 9 8 5 3 2 6 12 13 13 10 10 9 10 11 11 11 10 9 8 8 8 8 7 8 10 11 11 9 7 7 7 8 8 9 9 8 5 5 8 9 9 9 11 12 12 10 9 9 10 11 10 9 9 10 11 12 12 12 nan
nan 10 9 7 7 8 9 10 12 13 11 6 1 1 4 10 14 14 12 11 11 10 9 10 10 9 8 7 7 7 7 7 7 7 8 9 10 9 9 8 8 9 10 10 10 9 7 7 10 11 11 11 13 13 12 11 10 10 10 11 11 9 8 9 11 11 12 12 nan
nan 10 10 11 15 15 12 8 8 8 5 -1 -1 4 11 15 15 13 12 12 12 10 9 9 9 7 6 6 7 7 7 7 7 8 8 8 9 9 9 10 10 10 10 9 9 9 9 10 12 12 10 10 11 11 11 12 11 10 10 10 11 9 8 7 9 11 12 12 nan
nan 11 11 13 18 19 16 11 8 8 5 -1 0 6 13 16 13 11 10 11 10 9 8 9 8 6 5 6 8 7 7 7 8 8 8 8 9 9 9 9 10 9 8 7 7 9 11 12 12 10 8 8 8 9 11 12 12 10 9 9 9 9 8 7 9 10 11 12 nan
nan 12 12 14 17 17 16 13 13 14 13 10 9 11 12 14 11 7 7 7 7 7 9 10 7 5 5 7 8 7 8 8 8 8 8 9 10 9 9 8 8 7 6 5 7 10 12 12 11 9 7 7 8 10 11 12 11 10 9 8 8 8 8 8 9 10 10 11 nan
nan 13 13 15 16 16 16 14 13 15 18 19 19 16 13 12 9 6 5 6 6 7 8 8 6 6 8 9 8 8 8 8 9 8 9 9 10 10 10 9 8 7 6 7 9 11 12 12 11 10 9 8 9 10 11 11 11 11 10 10 9 9 8 8 9 10 10 10 nan
nan 13 14 15 15 14 15 14 13 16 19 21 20 16 11 11 11 8 7 8 8 7 8 8 7 9 10 10 10 9 8 8 8 8 7 8 10 11 10 10 9 8 8 8 9 10 11 11 10 10 9 9 9 9 10 10 11 11 11 11 10 9 9 9 9 9 9 9 nan
nan 12 14 15 14 13 13 12 13 17 19 20 17 13 10 12 14 12 10 8 7 9 12 12 9 10 11 11 11 10 9 9 8 7 7 8 10 10 10 10 9 8 8 8 8 9 10 10 10 11 11 10 9 9 9 9 9 9 10 10 10 9 9 9 9 9 9 9 nan
nan 12 13 14 13 11 11 11 12 16 17 17 13 10 10 12 14 14 13 10 9 11 14 13 11 12 13 13 13 13 12 10 9 9 10 10 11 11 10 10 9 9 8 8 8 9 9 10 11 11 11 11 10 9 8 8 8 8 9 9 8 9 9 9 9 9 8 8 nan
nan 11 13 13 13 12 11 11 12 14 14 13 10 9 10 11 12 12 13 12 13 14 12 10 11 13 13 13 12 13 13 13 12 13 13 13 12 11 10 10 10 10 10 10 9 9 9 10 11 11 11 10 9 9 8 8 8 7 7 7 7 8 8 9 9 9 8 8 nan
nan 11 12 13 13 13 12 12 12 12 12 12 11 11 11 11 11 10 10 12 15 15 11 8 8 10 12 11 10 10 12 13 14 14 13 12 11 10 9 9 9 10 10 10 10 9 10 10 10 10 10 9 8 8 8 8 7 6 6 6 8 8 9 9 9 9 9 9 nan
nan 11 11 13 14 14 13 12 12 12 13 13 14 13 12 11 11 11 10 11 14 14 12 8 8 9 10 9 8 8 9 12 14 12 11 10 10 9 9 8 8 9 9 10 10 10 10 10 10 9 9 8 7 7 7 7 7 7 7 8 9 9 9 9 9 9 9 9 nan
nan 10 11 13 14 14 13 13 14 14 14 14 14 13 11 11 12 11 11 11 11 12 12 10 9 9 9 8 7 7 8 11 13 11 10 9 9 9 8 8 8 8 9 9 10 10 9 9 8 8 7 7 7 7 7 7 8 8 8 8 9 9 9 9 10 9 9 10 nan
nan 10 12 13 14 14 14 14 14 14 13 13 12 12 11 11 11 11 11 11 11 12 11 10 10 10 10 8 7 7 8 11 12 11 10 9 9 9 8 8 9 8 8 8 9 8 8 8 7 7 7 7 7 7 7 7 8 8 8 8 8 9 9 10 10 10 10 10 nan
nan 11 12 12 13 14 13 12 12 12 12 12 12 11 11 11 11 11 11 12 12 12 10 9 10 11 11 10 9 9 9 10 11 11 11 10 9 9 9 9 9 8 7 7 7 7 7 7 7 7 7 7 7 8 8 8 8 8 8 8 7 8 9 10 11 11 11 11 nan
nan 12 11 12 12 12 11 11 11 11 10 11 11 11 11 10 10 10 11 12 12 11 10 10 11 11 11 11 11 10 9 8 8 9 10 11 9 8 8 8 8 7 7 8 9 8 6 6 7 7 7 7 8 9 10 10 9 9 9 8 8 8 8 9 9 10 10 10 nan
nan 11 11 12 12 11 10 11 10 10 10 10 10 11 10 10 9 10 10 10 10 10 10 11 10 10 9 9 9 9 9 8 7 7 8 8 8 8 7 7 7 8 9 13 13 9 5 3 4 6 7 8 9 10 10 10 10 9 9 9 9 8 8 8 8 8 8 8 nan
nan 10 11 11 10 10 11 10 10 10 10 10 10 10 10 9 9 10 10 9 9 9 9 8 8 9 8 8 9 8 8 8 8 8 7 7 7 7 8 8 8 9 11 15 13 7 3 2 1 2 4 7 9 9 9 9 10 9 9 9 10 10 9 8 7 6 6 7 nan
nan 9 9 10 10 10 10 9 10 10 10 10 10 9 9 10 11 10 10 9 9 8 7 6 7 8 7 8 9 8 7 8 10 10 9 9 8 7 7 7 7 9 12 13 9 5 3 4 4 5 5 7 8 8 8 8 9 9 9 9 10 11 10 10 8 7 6 6 nan
nan 9 9 9 9 9 9 10 10 10 9 9 9 8 10 11 11 10 9 8 8 7 6 6 7 7 7 10 10 9 9 9 10 10 10 10 9 7 5 6 7 10 12 9 6 5 5 6 9 10 11 9 8 10 9 9 9 9 9 10 10 11 11 11 10 10 8 7 nan
nan 9 9 8 8 8 9 9 9 8 8 9 9 10 10 10 10 9 9 9 7 6 6 7 7 9 11 12 10 9 8 9 10 10 10 10 8 7 6 6 7 9 11 8 6 7 8 8 10 9 11 11 11 11 11 11 10 9 9 10 10 11 11 11 11 10 10 9 nan
nan 10 9 8 8 8 9 9 9 9 8 9 10 10 9 9 9 8 7 6 5 6 8 10 11 12 12 10 8 8 8 9 10 10 11 9 6 6 6 5 6 8 10 11 9 9 9 9 9 9 9 12 15 11 11 11 11 10 9 10 11 11 10 11 10 10 9 9 nan
nan 10 9 9 8 8 8 9 10 10 10 11 11 9 9 8 7 6 5 5 7 9 10 11 13 12 9 8 9 9 9 9 10 10 10 9 7 6 6 6 7 8 10 11 11 10 9 9 8 8 8 12 16 11 11 12 11 10 10 11 12 11 10 11 11 10 10 9 nan
nan 10 10 9 8 8 8 9 10 11 11 11 10 9 8 7 6 6 7 9 10 10 9 10 11 8 7 8 9 10 11 10 10 9 9 8 7 7 7 8 9 9 9 10 10 10 10 9 8 7 7 12 17 14 12 12 12 11 12 13 13 12 10 11 12 12 11 10 nan
nan 9 10 9 8 8 9 9 10 10 11 10 9 9 8 6 6 8 9 10 10 9 9 10 9 7 6 6 8 9 10 9 10 10 9 8 7 8 7 8 9 10 9 9 10 10 11 10 8 7 8 14 17 15 12 11 10 11 12 12 13 13 13 12 12 12 11 10 nan
nan 9 9 9 9 8 8 9 9 10 10 9 9 8 8 7 7 7 7 7 8 9 10 11 9 8 9 9 9 10 9 8 9 10 9 8 7 7 6 6 8 9 9 9 10 10 10 10 8 8 9 17 17 14 12 10 9 11 12 12 11 12 13 13 12 12 12 11 nan
nan 9 9 9 9 9 9 8 9 9 9 8 7 7 7 8 8 7 7 7 7 9 10 10 10 10 12 12 12 12 10 9 9 9 8 7 7 7 6 5 7 8 9 9 10 10 10 10 8 9 12 16 14 12 11 10 9 11 11 10 9 10 10 11 11 11 11 12 nan
nan 9 9 9 9 9 9 8 8 8 8 7 6 6 7 7 8 9 9 7 7 9 10 9 10 11 11 10 10 11 11 10 9 9 8 7 7 7 7 6 7 9 10 9 9 9 10 9 7 10 13 14 12 11 10 9 10 11 10 8 7 7 8 9 10 10 11 11 nan
nan 10 9 9 9 9 9 8 7 7 7 7 6 7 8 7 8 9 8 7 7 9 9 9 10 10 10 9 9 10 12 11 10 9 9 8 7 7 6 6 7 9 11 10 9 9 9 8 7 10 12 11 11 10 9 8 9 10 9 7 6 6 7 9 10 11 11 12 nan
nan 10 10 10 10 9 9 8 7 7 7 6 6 8 8 8 9 9 8 6 7 10 8 8 10 11 11 10 10 11 12 10 9 9 9 9 7 7 6 6 6 9 10 10 9 9 8 7 10 14 13 9 9 8 8 9 10 10 9 7 6 7 8 9 11 12 12 14 nan
nan 11 11 10 10 10 9 8 7 7 7 6 6 8 8 8 9 11 9 7 8 11 10 9 11 12 12 10 9 10 10 10 9 9 9 9 9 7 6 6 7 9 10 10 9 8 7 8 18 23 17 7 6 8 9 10 10 9 8 7 7 7 8 9 11 12 13 17 nan
nan 11 11 11 11 11 10 9 7 7 8 8 9 8 8 8 9 11 9 8 10 11 11 11 12 12 11 8 7 8 8 8 9 10 9 10 10 9 7 7 8 9 11 11 9 7 6 13 27 27 14 3 6 8 9 10 11 9 8 8 7 7 7 8 9 11 12 17 nan
nan nan nan nan nan nan nan nan nan nan nan nan nan nan nan nan nan nan nan nan nan nan nan nan nan nan nan nan nan nan nan nan nan nan nan nan nan nan nan nan nan nan nan nan nan nan nan nan nan nan nan nan nan nan nan nan nan nan nan nan nan nan nan nan nan nan nan nan nan
CAPE
205 46 46 3 0 0 nan nan nan nan nan nan nan nan nan nan nan nan nan nan nan nan nan nan nan nan nan nan nan nan nan nan nan nan nan nan nan nan nan nan nan nan nan nan nan nan nan nan nan nan nan nan nan nan nan nan nan nan nan nan nan nan nan nan nan nan nan nan nan
203 32 32 nan nan nan nan nan nan nan nan nan nan nan nan nan nan nan nan nan 0 nan nan nan nan nan nan nan nan nan nan nan nan nan nan nan nan nan nan nan nan nan nan nan nan nan nan nan nan nan nan nan nan nan nan nan nan nan nan nan nan nan nan nan nan nan nan nan nan
205 24 24 1 nan nan nan nan nan nan nan nan nan nan nan nan nan nan nan nan nan nan nan nan nan nan nan nan nan nan nan nan nan nan nan nan nan nan nan nan nan nan nan nan nan nan nan nan nan nan nan nan nan nan nan nan nan nan nan nan nan nan nan nan nan nan nan nan nan
268 42 42 6 nan nan nan nan nan nan nan nan nan nan nan nan nan nan nan nan nan nan nan nan nan nan nan nan nan nan nan nan nan nan nan nan nan nan nan nan nan nan nan nan nan nan nan nan nan nan nan nan nan nan nan nan nan nan nan nan nan nan nan nan nan nan nan nan nan
265 104 104 14 1 1 nan nan nan nan nan nan nan nan nan nan nan nan nan nan nan nan nan nan nan nan nan nan nan nan nan nan nan nan nan nan nan nan nan nan nan nan nan nan nan nan nan nan nan nan nan nan nan nan nan nan nan nan nan nan nan nan nan nan nan nan nan nan nan
203 102 102 26 4 4 nan nan nan nan nan nan nan nan nan nan nan nan nan nan nan nan nan nan nan nan nan nan nan nan nan nan nan nan nan nan nan nan nan nan nan nan nan nan nan nan nan nan nan nan nan nan nan nan nan nan nan nan nan nan nan nan nan nan nan nan nan nan nan
171 49 49 13 4 4 0 nan nan nan nan nan nan nan nan nan nan nan nan nan nan nan nan nan nan nan nan nan nan nan nan nan nan nan nan nan nan nan nan nan nan nan nan nan nan nan nan nan nan nan nan nan nan nan nan nan nan nan nan nan nan nan nan nan nan nan nan nan nan
167 44 44 8 4 4 3 nan nan nan nan nan nan nan nan nan nan nan nan nan nan nan nan nan nan nan nan nan nan nan nan nan nan nan nan nan nan nan nan nan nan nan nan nan nan nan nan nan nan nan nan nan nan nan nan nan nan nan nan nan nan nan nan nan nan nan nan nan nan
185 87 87 16 4 4 1 1 nan nan nan nan nan nan nan nan nan nan nan nan nan nan nan nan nan nan nan nan nan nan nan nan nan nan nan nan nan nan nan nan nan nan nan nan nan nan nan nan nan nan nan nan nan nan nan nan nan nan nan nan nan nan nan nan nan nan nan nan nan
226 151 151 35 4 4 1 1 nan nan nan nan nan nan nan nan nan nan nan nan nan nan nan nan nan nan nan nan nan nan nan nan nan nan nan nan nan nan nan nan nan nan nan nan nan nan nan nan nan nan nan nan nan nan nan nan nan nan nan nan nan nan nan nan nan nan nan nan nan
226 204 204 98 11 11 2 nan nan nan nan nan nan nan nan nan nan nan nan nan nan nan nan nan nan nan nan nan nan nan nan nan nan nan nan nan nan nan nan nan nan nan nan nan nan nan nan nan nan nan nan nan nan nan nan nan nan nan nan nan nan nan nan nan nan nan nan nan nan
94 88 88 49 16 16 5 nan nan nan nan nan nan nan nan nan nan nan nan nan nan nan nan nan nan nan nan nan nan nan nan nan nan nan nan nan nan nan nan nan nan nan nan nan nan nan nan nan nan nan nan nan nan nan nan nan nan nan nan nan nan nan nan nan nan nan nan nan nan
nan nan nan nan nan nan 0 1 nan nan nan nan nan nan nan nan nan nan nan nan nan nan nan nan nan nan nan nan nan nan nan nan nan nan nan nan nan nan nan nan nan nan nan nan nan nan nan nan nan nan nan nan nan nan nan nan nan nan nan nan nan nan nan nan nan nan nan nan nan
nan nan nan nan nan nan nan nan nan nan nan nan nan nan nan nan nan nan nan nan nan nan nan nan nan nan nan nan nan nan nan nan nan nan nan nan nan nan nan nan nan nan nan nan nan nan nan nan nan nan nan nan nan nan nan nan nan nan nan nan nan nan nan nan nan nan nan nan nan
nan nan nan nan nan nan nan nan nan nan nan nan nan nan nan nan nan nan nan nan nan nan nan nan nan nan nan nan nan nan nan nan nan nan nan nan nan nan nan nan nan nan nan nan nan nan nan nan nan nan nan nan nan nan nan nan nan nan nan nan nan nan nan nan nan nan nan nan nan
nan nan nan nan nan nan nan nan nan nan nan nan nan nan nan nan nan nan nan nan nan nan nan nan nan nan nan nan nan nan nan nan nan nan nan nan nan nan nan nan nan nan nan nan nan nan nan nan nan nan nan nan nan nan nan nan nan nan nan nan nan nan nan nan nan nan nan nan nan
nan nan nan nan nan nan nan nan nan nan nan nan nan nan nan nan nan nan nan nan nan nan nan nan nan nan nan nan nan nan nan nan nan nan nan nan nan nan nan nan nan nan nan nan nan nan nan nan nan nan nan nan nan nan nan nan nan nan nan nan nan nan nan nan nan nan nan nan nan
nan nan nan nan nan nan nan nan nan nan nan nan nan nan nan nan nan nan nan nan nan nan nan nan nan nan nan nan nan nan nan nan nan nan nan nan nan nan nan nan nan nan nan nan nan nan nan nan nan nan nan nan nan nan nan nan nan nan nan nan nan nan nan nan nan nan nan nan nan
nan nan nan nan nan nan nan nan nan nan nan nan nan nan nan nan nan nan nan nan nan nan nan nan nan nan nan nan nan nan nan nan nan nan nan nan nan nan nan nan nan nan nan nan nan nan nan nan nan nan nan nan nan nan nan nan nan nan nan nan nan nan nan nan nan nan nan nan nan
nan nan nan nan nan nan nan nan nan nan nan nan nan nan nan nan nan nan nan nan nan nan nan nan nan nan nan nan nan nan nan nan nan nan nan nan nan nan nan nan nan nan nan nan nan nan nan nan nan nan nan nan nan nan nan nan nan nan nan nan nan nan nan nan nan nan nan nan nan
nan nan nan nan nan nan nan nan nan nan nan nan nan nan nan nan nan nan nan nan nan nan nan nan nan nan nan nan nan nan nan nan nan nan nan nan nan nan nan nan nan nan nan nan nan nan nan nan nan nan nan nan nan nan nan nan nan nan nan nan nan nan nan nan nan nan nan nan nan
nan nan nan nan nan nan nan nan nan nan nan nan nan nan nan nan nan nan nan nan nan nan nan nan nan nan nan nan nan nan nan nan nan nan nan nan nan nan nan nan nan nan nan nan nan nan nan nan nan nan nan nan nan nan nan nan nan nan nan nan nan nan nan nan nan nan nan nan nan
nan nan nan nan nan nan nan nan nan nan nan nan nan nan nan nan nan nan nan nan nan nan nan nan nan nan nan nan nan nan nan nan nan nan nan nan nan nan nan nan nan nan nan nan nan nan nan nan nan nan nan nan nan nan nan nan nan nan nan nan nan nan nan nan nan nan nan nan nan
nan nan nan nan nan nan nan nan nan nan nan nan nan nan nan nan nan nan nan nan nan nan nan nan nan nan nan nan nan nan nan nan nan nan nan nan nan nan nan nan nan nan nan nan nan nan nan nan nan nan nan nan nan nan nan nan nan nan nan nan nan nan nan nan nan nan nan nan nan
nan nan nan nan nan nan nan nan nan nan nan nan nan nan nan nan nan nan nan nan nan nan nan nan nan nan nan nan nan nan nan nan nan nan nan nan nan nan nan nan nan nan nan nan nan nan nan nan nan nan nan nan nan nan nan nan nan nan nan nan nan nan nan nan nan nan nan nan nan
nan nan nan nan nan nan nan nan nan nan nan nan nan nan nan nan nan nan nan nan nan nan nan nan nan nan nan nan nan nan nan nan nan nan nan nan nan nan nan nan nan nan nan nan nan nan 1 1 nan nan nan nan nan nan nan nan nan nan nan nan nan nan nan nan nan nan nan nan nan
nan nan nan nan nan nan nan nan nan nan nan nan nan nan nan nan nan nan nan nan nan nan nan nan nan nan nan nan nan nan nan nan nan nan nan nan nan nan nan nan nan nan nan nan 1 1 4 6 7 7 nan nan nan nan nan nan nan nan nan nan nan nan nan nan nan nan nan nan nan
nan nan nan nan nan nan nan nan nan nan nan nan nan nan nan nan nan nan nan nan nan nan nan nan nan nan nan nan nan nan nan nan nan nan nan nan nan nan nan nan nan nan nan nan 0 0 2 4 4 4 2 nan nan nan nan nan nan nan nan nan nan nan nan nan nan nan nan nan nan
nan nan nan nan nan nan nan nan nan nan nan nan nan nan nan nan nan nan nan nan nan nan nan nan nan nan nan nan nan nan nan nan nan nan nan nan nan nan nan nan nan nan nan nan 1 1 1 3 3 3 3 1 nan nan nan nan nan nan nan nan nan nan nan nan nan nan nan nan nan
nan nan nan nan nan nan nan nan nan nan nan nan nan nan nan nan nan nan nan nan nan nan nan nan nan nan nan nan nan nan nan nan nan nan nan nan nan nan nan nan nan nan nan 0 3 3 3 3 4 4 4 2 nan nan nan nan nan nan nan nan nan nan nan nan nan nan nan nan nan
nan nan nan nan nan nan nan nan nan nan nan nan nan nan nan nan nan nan nan nan nan nan nan nan nan nan nan nan nan nan nan nan nan nan nan nan nan nan nan 0 0 0 0 0 2 2 3 3 4 4 4 3 nan nan nan nan nan nan nan nan nan nan nan nan nan nan nan nan nan
nan nan nan nan nan nan nan nan nan nan nan nan nan nan nan nan nan nan nan nan nan nan nan nan nan nan nan nan nan nan nan nan nan nan nan nan nan 0 0 0 0 0 0 2 2 2 3 3 4 4 5 4 nan nan nan nan nan nan nan nan nan nan nan nan nan nan nan nan nan
nan nan nan nan nan nan nan nan nan nan nan nan nan nan nan nan nan nan nan nan nan nan nan nan nan nan nan nan nan nan nan nan nan 0 0 nan nan 0 0 0 0 0 0 2 2 2 3 3 4 4 3 6 nan nan nan nan nan nan nan nan nan nan nan nan nan nan nan nan nan
nan nan nan nan nan nan nan nan nan nan nan nan nan nan nan nan nan nan nan nan nan nan nan nan nan nan nan nan nan nan nan nan nan nan nan nan nan nan nan nan 0 0 0 2 2 2 2 2 3 3 3 8 nan nan nan nan nan nan nan nan nan nan nan nan nan nan nan nan nan
nan nan nan nan nan nan nan nan nan nan nan nan nan nan nan nan nan nan nan nan nan nan nan nan nan nan nan nan nan nan nan nan nan nan nan nan nan nan nan nan nan 1 1 2 2 2 2 2 4 4 4 nan nan nan nan nan nan nan nan nan nan nan nan nan nan nan nan nan nan
nan nan nan nan nan nan nan nan nan nan nan nan nan nan nan nan nan nan nan nan nan nan nan nan nan nan nan nan nan nan nan nan nan nan nan nan nan nan nan nan nan 0 0 3 3 3 2 2 3 3 6 nan nan nan nan nan nan nan nan nan nan nan nan nan nan nan nan nan nan
nan nan nan nan nan nan nan nan nan nan nan nan nan nan nan nan nan nan nan nan nan nan nan nan nan nan nan nan nan nan nan nan nan nan nan 0 nan nan nan nan nan nan nan 2 3 3 2 2 3 3 1 nan nan nan nan nan nan nan nan nan nan nan nan nan nan nan nan nan nan
nan nan nan nan nan nan nan nan nan nan nan nan nan nan nan nan nan nan nan nan nan nan nan nan nan nan nan nan nan nan nan nan nan nan nan nan nan nan nan nan nan nan nan 1 3 3 2 2 2 2 0 nan nan nan nan nan nan nan nan nan nan nan nan nan nan nan nan nan nan
nan nan nan nan nan nan nan nan nan nan nan nan nan nan nan nan nan nan nan nan nan nan nan nan nan nan nan nan nan nan nan nan nan nan nan nan nan nan nan nan nan nan nan 0 2 2 3 3 5 5 3 nan nan nan nan nan nan nan nan nan nan nan nan nan nan nan nan nan 0
nan nan nan nan nan nan nan nan nan nan nan nan nan nan nan nan nan nan nan nan nan nan nan nan nan nan nan nan nan nan nan nan nan nan nan nan nan 1 1 nan nan nan nan 0 2 2 3 3 7 7 3 nan nan nan nan nan nan nan nan nan nan nan nan nan nan nan nan nan 1
nan nan nan nan nan nan nan nan nan nan nan nan nan nan nan nan nan nan nan nan nan nan nan nan nan nan nan nan nan nan nan nan nan nan nan nan nan 3 3 nan nan nan nan 0 2 2 2 5 12 12 0 nan nan nan nan nan nan nan nan nan nan nan nan nan nan nan nan nan nan